Mersa Matruh, Egypt

8:07 PM EET on April 23, 2017 (GMT +0200)
Mersa Matruh

Weather History for HEMM - September, 2013

Change the Weather History Date:

Monday, September 30, 2013

  Actual Average Record
Temperature  
Mean Temperature 74 °F -  
Max Temperature 83 °F 78 °F 96 °F (2010)
Min Temperature 64 °F 64 °F 60 °F (1997)
Cooling Degree Days 8    
Growing Degree Days 24 (Base 50)    
Moisture  
Dew Point 65 °F    
Average Humidity 72    
Maximum Humidity 88    
Minimum Humidity 50    
Precipitation  
Precipitation 0.00 in 0.03 in - ()
Sea Level Pressure  
Sea Level Pressure 29.92 in    
Wind  
Wind Speed 6 mph ()    
Max Wind Speed 12 mph    
Max Gust Speed -    
Visibility 6.1 miles    
Events      
Averages and records for this station are not official NWS values.
T = Trace of Precipitation, MM = Missing Value Source: Averaged Metar Reports

Daily Weather History Graph

Daily Weather History Graph

Search for Another Location

Airport or City:

Trip Planner

Search our weather history database for the weather conditions in past years. The results will help you decide how hot, cold, wet, or windy it might be!

Date:

Astronomy

Sep. 30, 2013 Rise Set
Actual Time 6:04 AM EET 5:57 PM EET
Civil Twilight 5:39 AM EET 6:21 PM EET
Nautical Twilight 5:11 AM EET 6:49 PM EET
Astronomical Twilight 4:43 AM EET 7:18 PM EET
Moon 1:38 AM EET (9/30) 3:03 PM EET (9/30)
Length of Visible Light 12h 41m
Length of Day
11h 53m
Waning Crescent, 21% of the Moon is Illuminated
Sep 30
Waning Crescent
Oct 5
New
Oct 12
First Quarter
Oct 19
Full
Oct 27
Last Quarter

Hourly Weather History & Observations

Time (EET) Temp. Heat Index Dew Point Humidity Pressure Visibility Wind Dir Wind Speed Gust Speed Precip Events Conditions
12:00 AM 71.6 °F - 62.6 °F 73% 29.95 in 6.2 mi WSW 6.9 mph - N/A   Partly Cloudy
1:00 AM 69.8 °F - 64.4 °F 83% 29.95 in 6.2 mi West 9.2 mph - N/A   Partly Cloudy
2:00 AM 69 °F - 62 °F 72% 29.93 in 6 mi WSW 5.8 mph - -   Scattered Clouds
2:00 AM 68.0 °F - 62.6 °F 83% 29.92 in 6.2 mi WSW 5.8 mph - N/A   Partly Cloudy
3:00 AM 68.0 °F - 62.6 °F 83% 29.92 in 6.2 mi SW 4.6 mph - N/A   Partly Cloudy
4:00 AM 68.0 °F - 62.6 °F 83% 29.92 in 6.2 mi WSW 6.9 mph - N/A   Partly Cloudy
5:00 AM 66.2 °F - 62.6 °F 88% 29.92 in 6.2 mi SW 4.6 mph - N/A   Partly Cloudy
6:00 AM 64.4 °F - 60.8 °F 88% 29.92 in 6.2 mi WNW 4.6 mph - N/A   Partly Cloudy
7:00 AM 66.2 °F - 62.6 °F 88% 29.89 in 6.2 mi SW 5.8 mph - N/A   Scattered Clouds
8:00 AM 73 °F - 66 °F 73% 29.95 in 6 mi SW 5.8 mph - -   Scattered Clouds
8:00 AM 73.4 °F - 66.2 °F 78% 29.95 in 6.2 mi SW 5.8 mph - N/A   Partly Cloudy
9:00 AM 77.0 °F - 66.2 °F 69% 29.95 in 6.2 mi SW 4.6 mph - N/A   Scattered Clouds
10:00 AM 78.8 °F - 66.2 °F 65% 29.95 in 6.2 mi South 4.6 mph - N/A   Partly Cloudy
11:00 AM 82.4 °F 83.4 °F 62.6 °F 51% 29.95 in - South 5.8 mph - N/A   Clear
12:00 PM 82.4 °F 84.6 °F 66.2 °F 58% 29.92 in - NNE 11.5 mph - N/A   Clear
1:00 PM 82.4 °F 84.6 °F 66.2 °F 58% 29.92 in - North 11.5 mph - N/A   Clear
2:00 PM 82 °F - 66 °F 50% 29.91 in 6 mi NNE 11.5 mph - -  
2:00 PM 82.4 °F 84.6 °F 66.2 °F 58% 29.89 in - NNE 11.5 mph - N/A   Clear
3:00 PM 82.4 °F 85.4 °F 68.0 °F 62% 29.89 in - NNE 9.2 mph - N/A   Clear
4:00 PM 82.4 °F 85.4 °F 68.0 °F 62% 29.89 in - NNE 9.2 mph - N/A   Clear
5:00 PM 80.6 °F 83.2 °F 68.0 °F 65% 29.89 in - North 11.5 mph - N/A   Clear
6:00 PM 78.8 °F - 68.0 °F 69% 29.89 in - ENE 8.1 mph - N/A   Clear
7:00 PM 77.0 °F - 68.0 °F 74% 29.89 in - ESE 9.2 mph - N/A   Clear
8:00 PM 76 °F - 67 °F 67% 29.91 in 6 mi ESE 6.9 mph - -  
8:00 PM 75.2 °F - 68.0 °F 78% 29.89 in - ESE 6.9 mph - N/A   Clear
9:00 PM 73.4 °F - 66.2 °F 78% 29.92 in - ESE 5.8 mph - N/A   Clear
10:00 PM 71.6 °F - 64.4 °F 78% 29.92 in - SSE 8.1 mph - N/A   Clear
11:00 PM 71.6 °F - 64.4 °F 78% 29.89 in - SSE 9.2 mph - N/A   Clear